Adak, AK

6:14 PM HST on February 23, 2017 (GMT -1000)
Adak

Weather History for PADK - December, 2012

Change the Weather History Date:

Monday, December 31, 2012

  Actual Average Record
Temperature  
Mean Temperature 31 °F -  
Max Temperature 34 °F 36 °F 46 °F (1964)
Min Temperature 28 °F 26 °F 8 °F (1979)
Degree Days  
Heating Degree Days 34    
Moisture  
Dew Point 23 °F    
Average Humidity 68    
Maximum Humidity 80    
Minimum Humidity 56    
Precipitation  
Precipitation 0.00 in - - ()
Sea Level Pressure  
Sea Level Pressure 29.60 in    
Wind  
Wind Speed 16 mph (NW)    
Max Wind Speed 29 mph    
Max Gust Speed 40 mph    
Visibility 10 miles    
Events      
Averages and records for this station are not official NWS values.
T = Trace of Precipitation, MM = Missing Value Source: NWS Daily Summary

Daily Weather History Graph

Daily Weather History Graph

Search for Another Location

Airport or City:

Trip Planner

Search our weather history database for the weather conditions in past years. The results will help you decide how hot, cold, wet, or windy it might be!

Date:

Astronomy

Dec. 31, 2012 Rise Set
Actual Time 9:54 AM HST 5:46 PM HST
Civil Twilight 9:13 AM HST 6:26 PM HST
Nautical Twilight 8:30 AM HST 7:09 PM HST
Astronomical Twilight 7:49 AM HST 7:50 PM HST
Moon 10:01 PM HST (12/31) 11:16 AM HST (12/31)
Length of Visible Light 9h 12m
Length of Day
7h 51m
Waning Gibbous, 89% of the Moon is Illuminated
Dec 31
Waning Gibbous
Jan 4
Last Quarter
Jan 11
New
Jan 18
First Quarter
Jan 26
Full

Hourly Weather History & Observations

Time (HST) Temp. Windchill Dew Point Humidity Pressure Visibility Wind Dir Wind Speed Gust Speed Precip Events Conditions
12:16 AM 33.8 °F 21.3 °F 24.8 °F 70% 29.52 in 10.0 mi NNW 24.2 mph 32.2 mph N/A   Overcast
12:36 AM 33.8 °F 20.3 °F 24.8 °F 70% 29.53 in 10.0 mi NNW 28.8 mph 40.3 mph N/A   Overcast
12:56 AM 33.8 °F 20.8 °F 24.8 °F 70% 29.54 in 10.0 mi NNW 26.5 mph 33.4 mph N/A   Overcast
1:16 AM 33.8 °F 20.8 °F 24.8 °F 70% 29.54 in 10.0 mi NNW 26.5 mph 39.1 mph N/A   Overcast
1:36 AM 33.8 °F 21.6 °F 24.8 °F 70% 29.54 in 10.0 mi NNW 23.0 mph 28.8 mph N/A   Overcast
1:56 AM 33.8 °F 21.9 °F 24.8 °F 70% 29.56 in 10.0 mi North 21.9 mph 31.1 mph N/A   Overcast
2:16 AM 33.8 °F 22.2 °F 24.8 °F 70% 29.57 in 10.0 mi NNW 20.7 mph 31.1 mph N/A   Overcast
2:36 AM 33.8 °F 21.3 °F 24.8 °F 70% 29.58 in 10.0 mi NNW 24.2 mph 34.5 mph N/A   Overcast
2:56 AM 33.8 °F 22.5 °F 24.8 °F 70% 29.58 in 10.0 mi NNW 19.6 mph 33.4 mph N/A   Overcast
3:16 AM 33.8 °F 21.3 °F 26.6 °F 75% 29.60 in 10.0 mi NNW 24.2 mph 29.9 mph N/A   Overcast
3:36 AM 33.8 °F 22.5 °F 26.6 °F 75% 29.61 in 5.0 mi NNW 19.6 mph 26.5 mph N/A   Overcast
3:56 AM 33.8 °F 22.8 °F 24.8 °F 70% 29.61 in 5.0 mi NNW 18.4 mph 27.6 mph N/A   Overcast
4:16 AM 33.8 °F 21.9 °F 23.0 °F 65% 29.61 in 10.0 mi NNW 21.9 mph 28.8 mph N/A   Overcast
4:36 AM 33.8 °F 23.9 °F 24.8 °F 70% 29.62 in 10.0 mi NNW 15.0 mph 23.0 mph N/A   Overcast
4:56 AM 33.8 °F 22.5 °F 24.8 °F 70% 29.63 in 10.0 mi NNW 19.6 mph 24.2 mph N/A   Overcast
5:16 AM 33.8 °F 21.6 °F 24.8 °F 70% 29.63 in 10.0 mi NW 23.0 mph 29.9 mph N/A   Overcast
5:36 AM 33.8 °F 25.3 °F 23.0 °F 65% 29.64 in 10.0 mi NNW 11.5 mph 19.6 mph N/A   Overcast
5:56 AM 33.8 °F 23.5 °F 24.8 °F 70% 29.65 in 10.0 mi NNW 16.1 mph 20.7 mph N/A   Overcast
6:16 AM 33.8 °F 24.3 °F 23.0 °F 65% 29.65 in 10.0 mi NNW 13.8 mph 20.7 mph N/A   Overcast
6:36 AM 32.0 °F 27.5 °F 24.8 °F 75% 29.66 in 10.0 mi NW 4.6 mph 17.3 mph N/A   Overcast
6:56 AM 33.8 °F 30.8 °F 23.0 °F 65% 29.66 in 10.0 mi NW 3.5 mph - N/A   Overcast
7:16 AM 32.0 °F 26.4 °F 24.8 °F 75% 29.67 in 3.0 mi WNW 5.8 mph - N/A   Overcast
7:36 AM 32.0 °F 25.6 °F 23.0 °F 69% 29.68 in 9.0 mi NW 6.9 mph 17.3 mph N/A   Overcast
7:56 AM 33.8 °F 24.3 °F 21.2 °F 60% 29.67 in 10.0 mi WNW 13.8 mph 20.7 mph N/A   Overcast
8:16 AM 33.8 °F 25.3 °F 23.0 °F 65% 29.68 in 10.0 mi NW 11.5 mph 24.2 mph N/A   Overcast
8:36 AM 33.8 °F 24.8 °F 21.2 °F 60% 29.67 in 10.0 mi WNW 12.7 mph 20.7 mph N/A   Overcast
8:56 AM 32.0 °F 22.1 °F 24.8 °F 75% 29.66 in 10.0 mi NNW 13.8 mph 21.9 mph N/A   Overcast
9:16 AM 32.0 °F 21.2 °F 23.0 °F 69% 29.66 in 10.0 mi NW 16.1 mph 23.0 mph N/A   Overcast
9:36 AM 32.0 °F 20.8 °F 24.8 °F 75% 29.67 in 10.0 mi NNW 17.3 mph - N/A   Overcast
9:56 AM 32.0 °F 21.6 °F 24.8 °F 75% 29.68 in 8.0 mi NW 15.0 mph - N/A   Overcast
10:16 AM 32.0 °F 21.6 °F 24.8 °F 75% 29.69 in 5.0 mi NNW 15.0 mph 24.2 mph N/A   Overcast
10:36 AM 32.0 °F 22.5 °F 23.0 °F 69% 29.71 in 7.0 mi WNW 12.7 mph - N/A   Overcast
10:56 AM 33.8 °F 23.2 °F 24.8 °F 70% 29.70 in 9.0 mi NNW 17.3 mph 24.2 mph N/A   Overcast
11:16 AM 32.0 °F 19.8 °F 21.2 °F 64% 29.68 in 10.0 mi NNW 20.7 mph 26.5 mph N/A   Overcast
11:36 AM 32.0 °F 20.1 °F 23.0 °F 69% 29.68 in 10.0 mi NNW 19.6 mph 25.3 mph N/A   Overcast
11:56 AM 33.8 °F 23.9 °F 19.4 °F 56% 29.68 in 10.0 mi NNW 15.0 mph 21.9 mph N/A   Overcast
12:16 PM 33.8 °F 22.2 °F 21.2 °F 60% 29.69 in 10.0 mi NNW 20.7 mph - N/A   Overcast
12:36 PM 33.8 °F 25.8 °F 21.2 °F 60% 29.70 in 10.0 mi NW 10.4 mph - N/A   Overcast
12:56 PM 33.8 °F 25.8 °F 21.2 °F 60% 29.70 in 10.0 mi NW 10.4 mph 18.4 mph N/A   Overcast
1:16 PM 33.8 °F 26.4 °F 21.2 °F 60% 29.69 in 10.0 mi NW 9.2 mph - N/A   Overcast
1:36 PM 33.8 °F 25.3 °F 21.2 °F 60% 29.67 in 10.0 mi NNW 11.5 mph - N/A   Overcast
1:56 PM 33.8 °F 24.3 °F 23.0 °F 65% 29.66 in 10.0 mi NW 13.8 mph 20.7 mph N/A   Overcast
2:16 PM 33.8 °F 27.0 °F 21.2 °F 60% 29.67 in 10.0 mi NW 8.1 mph 19.6 mph N/A   Overcast
2:36 PM 33.8 °F 27.0 °F 21.2 °F 60% 29.67 in 10.0 mi WNW 8.1 mph - N/A   Overcast
2:56 PM 32.0 °F 26.4 °F 21.2 °F 64% 29.66 in 10.0 mi WSW 5.8 mph - N/A   Overcast
3:16 PM 32.0 °F 26.4 °F 21.2 °F 64% 29.66 in 10.0 mi WSW 5.8 mph - N/A   Overcast
3:36 PM 32.0 °F 25.6 °F 23.0 °F 69% 29.65 in 10.0 mi SW 6.9 mph - N/A   Overcast
3:56 PM 32.0 °F 28.7 °F 21.2 °F 64% 29.64 in 10.0 mi West 3.5 mph - N/A   Overcast
4:16 PM 33.8 °F 29.6 °F 19.4 °F 56% 29.63 in 10.0 mi WNW 4.6 mph - N/A   Overcast
4:36 PM 32.0 °F 27.5 °F 21.2 °F 64% 29.63 in 10.0 mi NW 4.6 mph - N/A   Overcast
4:56 PM 32.0 °F 28.7 °F 21.2 °F 64% 29.62 in 10.0 mi WSW 3.5 mph - N/A   Overcast
5:16 PM 32.0 °F 25.6 °F 21.2 °F 64% 29.62 in 10.0 mi WNW 6.9 mph - N/A   Overcast
5:36 PM 30.2 °F 26.7 °F 21.2 °F 69% 29.62 in 10.0 mi WNW 3.5 mph - N/A   Overcast
5:56 PM 30.2 °F 26.7 °F 21.2 °F 69% 29.61 in 10.0 mi WNW 3.5 mph - N/A   Overcast
6:16 PM 30.2 °F - 21.2 °F 69% 29.60 in 10.0 mi Calm Calm - N/A   Overcast
6:36 PM 30.2 °F - 21.2 °F 69% 29.59 in 10.0 mi Calm Calm - N/A   Overcast
6:56 PM 30.2 °F - 21.2 °F 69% 29.58 in 10.0 mi Calm Calm - N/A   Overcast
7:16 PM 30.2 °F 26.7 °F 23.0 °F 75% 29.57 in 10.0 mi WSW 3.5 mph - N/A   Overcast
7:36 PM 28.4 °F - 23.0 °F 80% 29.56 in 10.0 mi Calm Calm - N/A   Overcast
7:56 PM 30.2 °F 26.7 °F 21.2 °F 69% 29.55 in 10.0 mi WSW 3.5 mph - N/A   Overcast
8:16 PM 30.2 °F - 23.0 °F 75% 29.53 in 10.0 mi Calm Calm - N/A   Overcast
8:36 PM 28.4 °F - 21.2 °F 74% 29.51 in 10.0 mi Calm Calm - N/A   Overcast
8:56 PM 28.4 °F - 21.2 °F 74% 29.49 in 10.0 mi Calm Calm - N/A   Overcast
9:16 PM 28.4 °F - 21.2 °F 74% 29.48 in 10.0 mi Calm Calm - N/A   Overcast
9:36 PM 28.4 °F 24.6 °F 21.2 °F 74% 29.47 in 10.0 mi SW 3.5 mph - N/A   Overcast
9:56 PM 28.4 °F - 21.2 °F 74% 29.45 in 10.0 mi Calm Calm - N/A   Scattered Clouds
10:16 PM 28.4 °F 22.2 °F 21.2 °F 74% 29.43 in 10.0 mi SSE 5.8 mph - N/A   Mostly Cloudy
10:36 PM 30.2 °F 22.6 °F 21.2 °F 69% 29.42 in 10.0 mi SE 8.1 mph - N/A   Overcast
10:56 PM 30.2 °F 22.6 °F 21.2 °F 69% 29.41 in 10.0 mi SE 8.1 mph - N/A   Overcast
11:16 PM 30.2 °F 21.3 °F 21.2 °F 69% 29.39 in 10.0 mi ESE 10.4 mph - N/A   Overcast
11:36 PM 32.0 °F 23.6 °F 21.2 °F 64% 29.37 in 10.0 mi ESE 10.4 mph - N/A   Overcast
11:56 PM 32.0 °F 23.6 °F 23.0 °F 69% 29.36 in 10.0 mi ESE 10.4 mph - N/A   Overcast